Brownwood, TX

10:00 PM CDT on June 25, 2017 (GMT -0500)
Brownwood Regional

Weather History for KBWD - March, 2012

Change the Weather History Date:

Saturday, March 17, 2012

  Actual Average (KABI) Record (KABI)
Temperature  
Mean Temperature 68 °F -  
Max Temperature 71 °F 65 °F 95 °F (1908)
Min Temperature 64 °F 42 °F 18 °F (1892)
Cooling Degree Days 2    
Growing Degree Days 18 (Base 50)    
Moisture  
Dew Point 62 °F    
Average Humidity 82    
Maximum Humidity 94    
Minimum Humidity 64    
Precipitation  
Precipitation 0.00 in - - ()
Sea Level Pressure  
Sea Level Pressure 29.97 in    
Wind  
Wind Speed 12 mph (SSE)    
Max Wind Speed 17 mph    
Max Gust Speed 26 mph    
Visibility 10 miles    
Events      
Averages and records for this station are not official NWS values.
T = Trace of Precipitation, MM = Missing Value Source: NWS Daily Summary

Daily Weather History Graph

Daily Weather History Graph

Search for Another Location

Airport or City:

Trip Planner

Search our weather history database for the weather conditions in past years. The results will help you decide how hot, cold, wet, or windy it might be!

Date:

Astronomy

Mar. 17, 2012 Rise Set
Actual Time 7:42 AM CDT 7:45 PM CDT
Civil Twilight 7:18 AM CDT 8:09 PM CDT
Nautical Twilight 6:50 AM CDT 8:38 PM CDT
Astronomical Twilight 6:21 AM CDT 9:06 PM CDT
Moon 4:29 AM CDT (3/17) 3:26 PM CDT (3/17)
Length of Visible Light 12h 51m
Length of Day
12h 02m
Waning Crescent, 23% of the Moon is Illuminated
Mar 17
Waning Crescent
Mar 22
New
Mar 30
First Quarter
Apr 6
Full
Apr 13
Last Quarter

Hourly Weather History & Observations

Time (CDT) Temp. Dew Point Humidity Pressure Visibility Wind Dir Wind Speed Gust Speed Precip Events Conditions
12:15 AM 68.0 °F 62.6 °F 83% 29.99 in 10.0 mi SSE 9.2 mph 17.3 mph N/A   Clear
12:35 AM 66.2 °F 62.6 °F 88% 29.99 in 10.0 mi SSE 6.9 mph - N/A   Scattered Clouds
12:55 AM 66.2 °F 62.6 °F 88% 29.99 in 10.0 mi SSE 10.4 mph 18.4 mph N/A   Overcast
1:15 AM 66.2 °F 62.6 °F 88% 29.98 in 10.0 mi SSE 12.7 mph 21.9 mph N/A   Overcast
1:35 AM 66.2 °F 62.6 °F 88% 29.98 in 10.0 mi SSE 13.8 mph - N/A   Mostly Cloudy
1:55 AM 66.2 °F 62.6 °F 88% 29.98 in 10.0 mi South 11.5 mph - N/A   Partly Cloudy
2:15 AM 66.2 °F 62.6 °F 88% 29.98 in 10.0 mi SSE 15.0 mph 19.6 mph N/A   Partly Cloudy
2:35 AM 66.2 °F 62.6 °F 88% 29.98 in 10.0 mi SSE 11.5 mph 21.9 mph N/A   Scattered Clouds
2:55 AM 66.2 °F 62.6 °F 88% 29.97 in 10.0 mi SSE 11.5 mph 16.1 mph N/A   Scattered Clouds
3:15 AM 66.2 °F 62.6 °F 88% 29.97 in 10.0 mi SSE 15.0 mph 19.6 mph N/A   Partly Cloudy
3:35 AM 66.2 °F 62.6 °F 88% 29.95 in 10.0 mi SSE 13.8 mph 19.6 mph N/A   Clear
3:55 AM 66.2 °F 62.6 °F 88% 29.95 in 10.0 mi South 13.8 mph 17.3 mph N/A   Clear
4:15 AM 66.2 °F 62.6 °F 88% 29.95 in 10.0 mi SSE 12.7 mph 20.7 mph N/A   Clear
4:35 AM 66.2 °F 62.6 °F 88% 29.94 in 10.0 mi SSE 12.7 mph - N/A   Clear
4:55 AM 66.2 °F 62.6 °F 88% 29.94 in 10.0 mi SSE 11.5 mph 17.3 mph N/A   Partly Cloudy
5:15 AM 66.2 °F 62.6 °F 88% 29.95 in 10.0 mi SSE 10.4 mph 17.3 mph N/A   Partly Cloudy
5:55 AM 64.4 °F 62.6 °F 94% 29.99 in 10.0 mi South 8.1 mph - N/A   Mostly Cloudy
6:15 AM 64.4 °F 62.6 °F 94% 29.98 in 10.0 mi SSE 9.2 mph - N/A   Mostly Cloudy
6:35 AM 64.4 °F 62.6 °F 94% 29.97 in 10.0 mi SSE 10.4 mph - N/A   Overcast
6:55 AM 64.4 °F 62.6 °F 94% 29.96 in 10.0 mi SE 13.8 mph - N/A   Overcast
7:15 AM 64.4 °F 62.6 °F 94% 29.96 in 10.0 mi SSE 12.7 mph - N/A   Overcast
7:35 AM 64.4 °F 62.6 °F 94% 29.96 in 10.0 mi SSE 15.0 mph 23.0 mph N/A   Overcast
7:55 AM 64.4 °F 62.6 °F 94% 29.96 in 10.0 mi SSE 15.0 mph 19.6 mph N/A   Overcast
8:15 AM 64.4 °F 62.6 °F 94% 29.98 in 10.0 mi SSE 11.5 mph 17.3 mph N/A   Overcast
8:35 AM 64.4 °F 62.6 °F 94% 29.98 in 10.0 mi SSE 9.2 mph 16.1 mph N/A   Overcast
8:55 AM 66.2 °F 62.6 °F 88% 30.00 in 10.0 mi SSE 8.1 mph 17.3 mph N/A   Overcast
9:15 AM 66.2 °F 62.6 °F 88% 30.00 in 10.0 mi SSE 11.5 mph 17.3 mph N/A   Overcast
9:35 AM 66.2 °F 62.6 °F 88% 30.00 in 10.0 mi SSE 11.5 mph 18.4 mph N/A   Overcast
9:55 AM 66.2 °F 62.6 °F 88% 30.01 in 10.0 mi SSE 15.0 mph 18.4 mph N/A   Overcast
10:15 AM 66.2 °F 62.6 °F 88% 30.01 in 10.0 mi SSE 10.4 mph 16.1 mph N/A   Overcast
10:35 AM 66.2 °F 62.6 °F 88% 30.01 in 10.0 mi SSE 15.0 mph 23.0 mph N/A   Overcast
10:55 AM 66.2 °F 62.6 °F 88% 30.02 in 10.0 mi SSE 13.8 mph 18.4 mph N/A   Overcast
11:15 AM 66.2 °F 62.6 °F 88% 30.03 in 10.0 mi South 12.7 mph 18.4 mph N/A   Overcast
11:35 AM 66.2 °F 62.6 °F 88% 30.03 in 10.0 mi South 11.5 mph 18.4 mph N/A   Overcast
11:55 AM 66.2 °F 62.6 °F 88% 30.03 in 10.0 mi South 13.8 mph 23.0 mph N/A   Overcast
12:15 PM 68.0 °F 62.6 °F 83% 30.03 in 10.0 mi South 15.0 mph 24.2 mph N/A   Overcast
12:35 PM 68.0 °F 62.6 °F 83% 30.02 in 10.0 mi South 16.1 mph 24.2 mph N/A   Overcast
12:55 PM 68.0 °F 62.6 °F 83% 30.01 in 10.0 mi South 16.1 mph 20.7 mph N/A   Overcast
1:15 PM 68.0 °F 62.6 °F 83% 30.00 in 10.0 mi South 16.1 mph 23.0 mph N/A   Overcast
1:35 PM 69.8 °F 62.6 °F 78% 29.99 in 10.0 mi South 15.0 mph 21.9 mph N/A   Overcast
1:55 PM 71.6 °F 62.6 °F 73% 29.98 in 10.0 mi South 16.1 mph 24.2 mph N/A   Overcast
2:15 PM 71.6 °F 62.6 °F 73% 29.97 in 10.0 mi South 15.0 mph - N/A   Overcast
2:35 PM 71.6 °F 62.6 °F 73% 29.96 in 10.0 mi South 11.5 mph 19.6 mph N/A   Mostly Cloudy
2:55 PM 71.6 °F 60.8 °F 69% 29.95 in 10.0 mi South 15.0 mph 21.9 mph N/A   Mostly Cloudy
3:15 PM 71.6 °F 62.6 °F 73% 29.95 in 10.0 mi SSE 13.8 mph 18.4 mph N/A   Overcast
3:35 PM 71.6 °F 60.8 °F 69% 29.96 in 10.0 mi SSW 15.0 mph 26.5 mph N/A   Mostly Cloudy
3:55 PM 71.6 °F 59.0 °F 64% 29.96 in 10.0 mi South 11.5 mph 20.7 mph N/A   Overcast
4:15 PM 69.8 °F 60.8 °F 73% 29.95 in 10.0 mi South 13.8 mph 18.4 mph N/A   Mostly Cloudy
4:55 PM 69.8 °F 60.8 °F 73% 29.93 in 10.0 mi SE 9.2 mph - N/A   Clear
5:15 PM 71.6 °F 60.8 °F 69% 29.92 in 10.0 mi SSE 9.2 mph - N/A   Clear
5:35 PM 71.6 °F 60.8 °F 69% 29.91 in 10.0 mi SSE 17.3 mph 23.0 mph N/A   Clear
5:55 PM 71.6 °F 59.0 °F 64% 29.91 in 10.0 mi SSE 9.2 mph - N/A   Clear
6:15 PM 71.6 °F 60.8 °F 69% 29.92 in 10.0 mi SSE 8.1 mph - N/A   Clear
6:55 PM 71.6 °F 59.0 °F 64% 29.93 in 10.0 mi SSE 6.9 mph - N/A   Clear
7:15 PM 69.8 °F 60.8 °F 73% 29.92 in 10.0 mi SE 6.9 mph - N/A   Clear
7:35 PM 68.0 °F 60.8 °F 78% 29.92 in 10.0 mi SE 6.9 mph - N/A   Clear
7:55 PM 68.0 °F 60.8 °F 78% 29.93 in 10.0 mi SSE 5.8 mph - N/A   Scattered Clouds
8:15 PM 68.0 °F 59.0 °F 73% 29.94 in 10.0 mi SE 6.9 mph - N/A   Overcast
8:35 PM 68.0 °F 59.0 °F 73% 29.94 in 10.0 mi SE 8.1 mph - N/A   Overcast
8:55 PM 69.8 °F 59.0 °F 68% 29.94 in 10.0 mi SE 12.7 mph 19.6 mph N/A   Overcast
9:15 PM 69.8 °F 60.8 °F 73% 29.95 in 10.0 mi SSE 13.8 mph 21.9 mph N/A   Overcast
9:35 PM 69.8 °F 60.8 °F 73% 29.95 in 10.0 mi SSE 15.0 mph 23.0 mph N/A   Overcast
9:55 PM 69.8 °F 62.6 °F 78% 29.95 in 10.0 mi SSE 15.0 mph 21.9 mph N/A   Overcast
10:15 PM 68.0 °F 62.6 °F 83% 29.96 in 10.0 mi SSE 15.0 mph - N/A   Overcast
10:35 PM 68.0 °F 62.6 °F 83% 29.96 in 10.0 mi SSE 15.0 mph 23.0 mph N/A   Overcast
10:55 PM 68.0 °F 62.6 °F 83% 29.96 in 10.0 mi SSE 13.8 mph 19.6 mph N/A   Overcast
11:15 PM 68.0 °F 62.6 °F 83% 29.96 in 10.0 mi SSE 15.0 mph 20.7 mph N/A   Overcast
11:55 PM 68.0 °F 62.6 °F 83% 29.95 in 10.0 mi SSE 13.8 mph 26.5 mph N/A   Partly Cloudy